TimeCST,TemperatureF,Dew PointF,Humidity,Sea Level PressureIn,VisibilityMPH,Wind Direction,Wind SpeedMPH,Gust SpeedMPH,PrecipitationIn,Events,Conditions,WindDirDegrees,DateUTC
12:15 AM,21.2,18.3,89,29.82,1.5,North,11.5,-,N/A,Snow,Light Snow,10,2013-02-22 06:15:00
12:35 AM,21.2,18.3,89,29.83,1.2,North,11.5,-,N/A,Snow,Light Snow,10,2013-02-22 06:35:00
12:55 AM,21.0,18.3,89,29.83,1.2,North,11.5,-,0.01,Snow,Light Snow,10,2013-02-22 06:55:00
1:15 AM,21.0,18.5,90,29.82,1.5,North,10.4,-,0.01,Snow,Light Snow,10,2013-02-22 07:15:00
1:35 AM,21.2,18.5,89,29.82,3.0,North,12.7,16.1,0.02,Snow,Light Snow,10,2013-02-22 07:35:00
1:55 AM,21.0,18.1,89,29.82,5.0,North,9.2,-,0.02,Snow,Light Snow,360,2013-02-22 07:55:00
2:15 AM,20.8,18.0,89,29.82,5.0,North,10.4,-,N/A,Snow,Light Snow,360,2013-02-22 08:15:00
2:35 AM,20.8,17.8,88,29.83,10.0,North,10.4,-,0.01,Snow,Light Snow,350,2013-02-22 08:35:00
2:55 AM,20.3,17.6,89,29.82,10.0,NNW,10.4,-,0.01,Snow,Light Snow,340,2013-02-22 08:55:00
3:15 AM,19.6,16.9,89,29.82,10.0,NNW,10.4,-,N/A,,Scattered Clouds,330,2013-02-22 09:15:00
3:35 AM,19.6,16.9,89,29.82,10.0,NNW,10.4,-,N/A,Snow,Light Snow,330,2013-02-22 09:35:00
3:55 AM,20.1,17.2,89,29.83,10.0,NNW,12.7,-,N/A,Snow,Light Snow,330,2013-02-22 09:55:00
4:15 AM,20.3,17.4,89,29.83,3.0,NNW,13.8,-,N/A,Snow,Light Snow,330,2013-02-22 10:15:00
4:35 AM,20.3,17.2,88,29.83,2.0,NW,12.7,-,N/A,Snow,Light Snow,320,2013-02-22 10:35:00
4:55 AM,20.1,17.1,88,29.83,2.5,NNW,13.8,-,N/A,Snow,Light Snow,330,2013-02-22 10:55:00
5:15 AM,19.9,16.5,87,29.84,4.0,NNW,13.8,19.6,N/A,Snow,Light Snow,330,2013-02-22 11:15:00
5:35 AM,19.8,16.3,87,29.83,7.0,NNW,16.1,19.6,N/A,Snow,Light Snow,330,2013-02-22 11:35:00
5:55 AM,19.6,16.0,86,29.84,10.0,NW,16.1,-,N/A,,Scattered Clouds,320,2013-02-22 11:55:00
6:15 AM,19.2,15.6,86,29.84,10.0,NW,12.7,-,N/A,,Scattered Clouds,320,2013-02-22 12:15:00
6:35 AM,18.5,14.9,86,29.85,10.0,NW,11.5,16.1,N/A,,Overcast,320,2013-02-22 12:35:00
6:55 AM,18.3,14.7,86,29.86,10.0,NW,10.4,-,N/A,,Overcast,310,2013-02-22 12:55:00
7:35 AM,16.7,13.1,86,29.87,10.0,NW,11.5,-,N/A,,Clear,310,2013-02-22 13:35:00
7:55 AM,16.3,12.7,86,29.88,10.0,NW,10.4,-,N/A,,Clear,310,2013-02-22 13:55:00
8:15 AM,16.7,12.7,84,29.89,10.0,NW,10.4,-,N/A,,Clear,320,2013-02-22 14:15:00
8:35 AM,16.7,12.4,83,29.89,10.0,NNW,12.7,-,N/A,,Clear,330,2013-02-22 14:35:00
8:55 AM,18.3,13.3,81,29.90,10.0,NNW,11.5,-,N/A,,Clear,330,2013-02-22 14:55:00
9:15 AM,19.9,14.0,78,29.90,10.0,NNW,11.5,-,N/A,,Clear,340,2013-02-22 15:15:00
9:35 AM,21.0,14.7,77,29.90,10.0,NNW,11.5,18.4,0.01,,Scattered Clouds,340,2013-02-22 15:35:00
9:55 AM,20.1,14.0,77,29.92,10.0,NW,10.4,-,0.01,,Scattered Clouds,310,2013-02-22 15:55:00
10:15 AM,19.8,13.6,77,29.93,10.0,WNW,9.2,16.1,N/A,,Scattered Clouds,290,2013-02-22 16:15:00
10:35 AM,19.6,13.6,78,29.94,10.0,WNW,8.1,-,N/A,,Clear,300,2013-02-22 16:35:00
10:55 AM,19.9,14.0,78,29.94,10.0,NW,10.4,16.1,N/A,,Scattered Clouds,310,2013-02-22 16:55:00
11:15 AM,20.3,14.2,77,29.95,10.0,WNW,10.4,-,N/A,,Clear,290,2013-02-22 17:15:00
11:35 AM,21.0,14.7,77,29.95,10.0,WNW,9.2,-,N/A,,Clear,300,2013-02-22 17:35:00
11:55 AM,20.8,14.2,75,29.97,10.0,WNW,10.4,16.1,N/A,,Clear,290,2013-02-22 17:55:00
12:15 PM,21.2,14.5,75,29.97,10.0,WNW,12.7,-,N/A,,Mostly Cloudy,290,2013-02-22 18:15:00
12:35 PM,22.1,14.7,73,29.96,10.0,WNW,11.5,-,N/A,,Scattered Clouds,290,2013-02-22 18:35:00
12:55 PM,22.3,14.7,73,29.96,10.0,West,8.1,-,N/A,,Clear,270,2013-02-22 18:55:00
1:15 PM,22.6,14.7,72,29.97,10.0,West,10.4,16.1,N/A,,Scattered Clouds,260,2013-02-22 19:15:00
1:35 PM,22.8,14.5,71,29.97,10.0,West,10.4,17.3,N/A,,Mostly Cloudy,270,2013-02-22 19:35:00
1:55 PM,22.8,14.5,71,29.97,10.0,West,10.4,-,N/A,,Scattered Clouds,280,2013-02-22 19:55:00
2:15 PM,23.2,14.9,71,29.97,10.0,West,10.4,-,N/A,,Mostly Cloudy,270,2013-02-22 20:15:00
2:35 PM,23.4,14.7,70,29.97,10.0,West,11.5,-,N/A,,Mostly Cloudy,270,2013-02-22 20:35:00
2:55 PM,23.0,14.4,70,29.97,10.0,West,12.7,18.4,N/A,,Scattered Clouds,280,2013-02-22 20:55:00
3:15 PM,23.2,14.5,70,29.96,10.0,WNW,13.8,-,N/A,,Clear,290,2013-02-22 21:15:00
3:35 PM,23.0,14.7,71,29.97,10.0,WNW,11.5,16.1,N/A,,Clear,290,2013-02-22 21:35:00
3:55 PM,23.0,14.7,71,29.96,10.0,NW,10.4,-,N/A,,Clear,310,2013-02-22 21:55:00
4:15 PM,23.5,15.1,70,29.96,10.0,NW,9.2,-,N/A,,Clear,310,2013-02-22 22:15:00
4:35 PM,23.5,15.1,70,29.97,10.0,WNW,8.1,-,N/A,,Clear,300,2013-02-22 22:35:00
4:55 PM,22.3,14.9,73,29.98,10.0,West,5.8,-,N/A,,Scattered Clouds,280,2013-02-22 22:55:00
5:15 PM,22.1,14.9,74,29.98,10.0,WNW,8.1,-,N/A,,Overcast,290,2013-02-22 23:15:00
5:35 PM,21.0,14.7,77,29.98,10.0,WNW,4.6,-,N/A,,Mostly Cloudy,300,2013-02-22 23:35:00
5:55 PM,20.1,14.2,78,29.99,10.0,West,4.6,-,N/A,,Scattered Clouds,280,2013-02-22 23:55:00
6:15 PM,18.9,13.3,79,29.98,10.0,WNW,4.6,-,N/A,,Clear,290,2013-02-23 00:15:00
6:35 PM,18.3,13.1,80,29.99,10.0,West,3.5,-,N/A,,Clear,280,2013-02-23 00:35:00
6:55 PM,18.1,13.1,81,30.00,10.0,WSW,3.5,-,N/A,,Clear,250,2013-02-23 00:55:00
7:15 PM,17.4,12.9,83,30.00,10.0,West,4.6,-,N/A,,Clear,260,2013-02-23 01:15:00
7:35 PM,17.4,12.9,83,30.00,10.0,West,5.8,-,N/A,,Clear,260,2013-02-23 01:35:00
7:55 PM,16.7,12.4,83,30.00,10.0,WSW,3.5,-,N/A,,Clear,250,2013-02-23 01:55:00
8:15 PM,16.7,12.6,84,30.00,10.0,WSW,5.8,-,N/A,,Mostly Cloudy,250,2013-02-23 02:15:00
8:35 PM,16.7,12.6,84,30.00,10.0,WSW,5.8,-,N/A,,Overcast,250,2013-02-23 02:35:00
8:55 PM,17.1,12.7,83,30.00,10.0,West,4.6,-,N/A,,Overcast,260,2013-02-23 02:55:00
9:15 PM,16.7,12.4,83,30.00,10.0,West,4.6,-,N/A,,Scattered Clouds,270,2013-02-23 03:15:00
9:35 PM,15.3,11.5,85,29.99,10.0,West,3.5,-,N/A,,Clear,270,2013-02-23 03:35:00
9:55 PM,14.9,11.5,86,29.99,10.0,West,4.6,-,N/A,,Clear,280,2013-02-23 03:55:00
10:15 PM,13.8,10.4,86,29.99,10.0,West,3.5,-,N/A,,Clear,270,2013-02-23 04:15:00
10:35 PM,9.9,6.6,87,29.99,7.0,WSW,5.8,-,N/A,,Clear,250,2013-02-23 04:35:00
10:55 PM,11.1,7.7,86,29.99,10.0,WSW,5.8,-,N/A,,Clear,250,2013-02-23 04:55:00
11:15 PM,13.5,10.4,88,29.98,10.0,West,6.9,-,N/A,,Clear,260,2013-02-23 05:15:00
11:35 PM,13.3,10.2,88,29.98,10.0,WNW,3.5,-,N/A,,Clear,290,2013-02-23 05:35:00
11:55 PM,11.7,7.9,85,29.98,10.0,WSW,8.1,-,N/A,,Clear,250,2013-02-23 05:55:00